Погода в Лятошинке

Россия / Волгоградская область     50°36′51″N   46°33′23″E
темп.,
°C
ветер,
м/с
пор.,
м/с
влажн.,
%
обл.,
%
осадки,
мм/ч
давл.,
гПа
погр.,
м
22 мая, вс
вс2200:00+8ю4453100 0.0 100747
03:00+7ю3485100 0.0 100660
06:00+9юв4781100 0.0 1003287
09:00+10юв6974100 0.2 1001748
12:00+8в81290100 2.2 999631
15:00+8вюв81293100 3.9 996487
18:00+9вюв3395100 1.0 994154
21:00+9зсз2297100 1.0 99519
23 мая, пн
пн2300:00+8зюз349674 0.0 99464
03:00+9зюз6119297 0.2 994446
06:00+7зсз5891100 0.1 995553
09:00+8ссз61086100 0.2 1000937
12:00+10сз676875 0.1 10031054
15:00+11ссз565768 0.2 10041038
18:00+11ссз465514 0.0 10051338
21:00+7с3368100 0.0 100729
24 мая, вт
вт2400:00+5з11705 0.0 100810
03:00+4з227717 0.0 100815
06:00+7зсз237148 0.0 1010150
09:00+12зсз345127 0.0 10101122
12:00+14зсз3343100 0.0 10101654
15:00+16сз1339100 0.0 10102076
18:00+14з4656100 0.0 1010201
21:00+12сз3359100 0.0 101158
25 мая, ср
ср2500:00+10з33655 0.0 101137
03:00+8з337316 0.0 101127
06:00+11з377090 0.0 1012239
09:00+15з57545 0.0 10121171
12:00+16з7950100 0.0 10111971
15:00+17з81057100 0.9 10111688
18:00+12сз6874100 1.2 1012806
21:00+10зсз487785 1.2 1013375
26 мая, чт
чт2600:00+8зсз4879100 0.1 1013277
03:00+7зсз48845 0.1 1014192
06:00+8сз69750 0.0 1015468
09:00+12сз67554 0.0 10151208
12:00+15сз67435 0.0 10161672
15:00+16сз57395 0.0 10152010
18:00+16зсз354672 0.0 10151088
21:00+11зюз2257100 0.0 101510